User: anonymous   Login
Location: Table Mountain
(47.2500°N, 120.5778°W)
Time: 08:55:45
(UTC-08:00)
Language:

Envisat - Orbit

View from above orbital plane
View from above orbital plane
View from above satellite
View from above satellite

Ground track
Ground track

The orbit data is extracted from the following two-line orbital elements,

1 27386U 02009A   17350.14524793 -.00000022  00000-0  63679-5 0  9999
2 27386  98.2094  27.6053 0001486  81.1302 279.0073 14.37910689827224
Epoch (UTC): 16 December 2017 03:29:09
Eccentricity: 0.0001486
inclination: 98.2094°
perigee height: 764 km
apogee height: 766 km
right ascension of ascending node: 27.6053°
argument of perigee: 81.1302°
revolutions per day: 14.37910689
mean anomaly at epoch: 279.0073°
orbit number at epoch: 82722

The dashed part of the orbit path shows where the satellite is in the earth's shadow,  

DLR